SWA4139 KSAN-KTUS

Flight info

Callsign SWA4139
Flight time 0h 52m
Altitude 33000
Route ZZOOO4 GBN DINGO6
Aircraft B38M/M-SDE1FGHILORVWXY/HB1

Departure

Time 2026-05-03 22:49
Airport San Diego International Airport (KSAN)

Arrival

Time 2026-05-03 23:41
Airport Tucson International Airport (KTUS)
Time Latitude Longitude Altitude Speed Heading
2026-05-03 22:34 32.73307 -117.20070 23 ft 0 kts 278°
2026-05-03 22:39 32.73305 -117.20045 23 ft 4 kts 265°
2026-05-03 22:39 32.73313 -117.20017 24 ft 2 kts 238°
2026-05-03 22:39 32.73320 -117.19999 25 ft 4 kts 288°
2026-05-03 22:39 32.73309 -117.19993 30 ft 4 kts 13°
2026-05-03 22:40 32.73288 -117.19998 24 ft 0 kts 13°
2026-05-03 22:43 32.73291 -117.19997 24 ft 2 kts 13°
2026-05-03 22:43 32.73328 -117.19987 25 ft 8 kts 13°
2026-05-03 22:43 32.73399 -117.19968 27 ft 12 kts 13°
2026-05-03 22:43 32.73470 -117.19915 26 ft 12 kts 68°
2026-05-03 22:44 32.73459 -117.19811 26 ft 14 kts 105°
2026-05-03 22:44 32.73441 -117.19731 26 ft 16 kts 105°
2026-05-03 22:44 32.73411 -117.19593 27 ft 18 kts 104°
2026-05-03 22:44 32.73371 -117.19444 27 ft 20 kts 108°
2026-05-03 22:45 32.73327 -117.19269 24 ft 24 kts 106°
2026-05-03 22:45 32.73280 -117.19076 26 ft 25 kts 105°
2026-05-03 22:45 32.73232 -117.18874 26 ft 26 kts 106°
2026-05-03 22:45 32.73181 -117.18663 26 ft 27 kts 106°
2026-05-03 22:46 32.73125 -117.18433 25 ft 30 kts 106°
2026-05-03 22:46 32.73066 -117.18187 22 ft 32 kts 107°
2026-05-03 22:46 32.73007 -117.17945 21 ft 19 kts 106°
2026-05-03 22:46 32.72975 -117.17816 18 ft 17 kts 106°
2026-05-03 22:47 32.72955 -117.17679 20 ft 16 kts 80°
2026-05-03 22:47 32.72996 -117.17584 23 ft 8 kts 21°
2026-05-03 22:47 32.73034 -117.17633 23 ft 11 kts 285°
2026-05-03 22:47 32.73038 -117.17649 21 ft 1 kts 284°
2026-05-03 22:48 32.73043 -117.17675 21 ft 6 kts 286°
2026-05-03 22:48 32.73114 -117.17968 19 ft 77 kts 286°
2026-05-03 22:48 32.73339 -117.18889 25 ft 154 kts 287°
2026-05-03 22:48 32.73679 -117.20267 587 ft 182 kts 288°
2026-05-03 22:49 32.74004 -117.21657 1966 ft 165 kts 287°
2026-05-03 22:49 32.74289 -117.22952 2986 ft 168 kts 285°
2026-05-03 22:49 32.74618 -117.24363 3645 ft 184 kts 286°
2026-05-03 22:49 32.74983 -117.25867 4452 ft 198 kts 284°
2026-05-03 22:50 32.75360 -117.27522 5200 ft 214 kts 283°
2026-05-03 22:50 32.75760 -117.29239 6214 ft 216 kts 282°
2026-05-03 22:50 32.76187 -117.31006 7019 ft 231 kts 282°
2026-05-03 22:50 32.76403 -117.32962 7633 ft 246 kts 258°
2026-05-03 22:51 32.75731 -117.34807 8494 ft 247 kts 232°
2026-05-03 22:51 32.74512 -117.36233 9447 ft 248 kts 212°
2026-05-03 22:51 32.72914 -117.37001 10367 ft 254 kts 188°
2026-05-03 22:51 32.71142 -117.36714 11173 ft 267 kts 156°
2026-05-03 22:52 32.69782 -117.35215 12215 ft 275 kts 127°
2026-05-03 22:52 32.68897 -117.33157 13068 ft 282 kts 122°
2026-05-03 22:52 32.67914 -117.31132 13841 ft 286 kts 129°
2026-05-03 22:52 32.66769 -117.29199 14617 ft 288 kts 134°
2026-05-03 22:53 32.65506 -117.27343 15382 ft 290 kts 137°
2026-05-03 22:53 32.64266 -117.25437 16175 ft 296 kts 130°
2026-05-03 22:53 32.63284 -117.23212 16742 ft 315 kts 118°
2026-05-03 22:53 32.62669 -117.20635 17238 ft 334 kts 106°
2026-05-03 22:54 32.62384 -117.17854 17858 ft 342 kts 101°
2026-05-03 22:54 32.62188 -117.15022 18522 ft 348 kts 100°
2026-05-03 22:54 32.62004 -117.12091 18828 ft 368 kts 94°
2026-05-03 22:54 32.62417 -117.09048 19043 ft 391 kts 73°
2026-05-03 22:55 32.63378 -117.05955 19358 ft 406 kts 70°
2026-05-03 22:55 32.64390 -117.02775 19750 ft 417 kts 70°
2026-05-03 22:55 32.65434 -116.99548 20404 ft 420 kts 70°
2026-05-03 22:55 32.66374 -116.96247 20933 ft 424 kts 81°
2026-05-03 22:56 32.66632 -116.92771 21502 ft 424 kts 91°
2026-05-03 22:56 32.66755 -116.89252 21980 ft 430 kts 91°
2026-05-03 22:56 32.66860 -116.85698 22548 ft 431 kts 91°
2026-05-03 22:56 32.66954 -116.82116 22905 ft 439 kts 91°
2026-05-03 22:57 32.67041 -116.78477 23404 ft 441 kts 91°
2026-05-03 22:57 32.67033 -116.72804 24248 ft 444 kts 96°
2026-05-03 22:57 32.66880 -116.65400 25116 ft 454 kts 93°
2026-05-03 22:57 32.66825 -116.57839 25954 ft 462 kts 95°
2026-05-03 22:58 32.66682 -116.50141 26714 ft 470 kts 94°
2026-05-03 22:58 32.66604 -116.44107 27340 ft 476 kts 94°
2026-05-03 22:58 32.66810 -116.40150 27662 ft 484 kts 86°
2026-05-03 22:58 32.67167 -116.36171 28053 ft 486 kts 86°
2026-05-03 22:59 32.67525 -116.32163 28374 ft 490 kts 86°
2026-05-03 22:59 32.67890 -116.28124 28708 ft 494 kts 86°
2026-05-03 22:59 32.68256 -116.24056 29010 ft 498 kts 86°
2026-05-03 22:59 32.68625 -116.19956 29358 ft 501 kts 86°
2026-05-03 23:00 32.68995 -116.15834 29702 ft 504 kts 86°
2026-05-03 23:00 32.69366 -116.11676 29990 ft 507 kts 86°
2026-05-03 23:00 32.69739 -116.07500 30271 ft 511 kts 86°
2026-05-03 23:00 32.70117 -116.03291 30529 ft 515 kts 86°
2026-05-03 23:01 32.70513 -115.99047 30797 ft 519 kts 85°
2026-05-03 23:01 32.70909 -115.94782 31095 ft 521 kts 85°
2026-05-03 23:01 32.71303 -115.90501 31396 ft 523 kts 85°
2026-05-03 23:01 32.71699 -115.86191 31646 ft 527 kts 85°
2026-05-03 23:02 32.72091 -115.81911 31903 ft 529 kts 85°
2026-05-03 23:02 32.72488 -115.77544 32150 ft 533 kts 85°
2026-05-03 23:02 32.72886 -115.73157 32433 ft 536 kts 85°
2026-05-03 23:02 32.73284 -115.68758 32729 ft 537 kts 85°
2026-05-03 23:03 32.73682 -115.64335 32805 ft 539 kts 85°
2026-05-03 23:03 32.74471 -115.55520 32768 ft 536 kts 86°
2026-05-03 23:04 32.74882 -115.46717 32752 ft 533 kts 92°
2026-05-03 23:04 32.75068 -115.37929 32740 ft 534 kts 91°
2026-05-03 23:05 32.75289 -115.29088 32749 ft 534 kts 91°
2026-05-03 23:05 32.75506 -115.20266 32756 ft 534 kts 91°
2026-05-03 23:06 32.75716 -115.11450 32756 ft 533 kts 91°
2026-05-03 23:06 32.75920 -115.02649 32757 ft 533 kts 91°
2026-05-03 23:07 32.76117 -114.93843 32759 ft 533 kts 91°
2026-05-03 23:07 32.76309 -114.85033 32761 ft 533 kts 91°
2026-05-03 23:08 32.76496 -114.76236 32766 ft 532 kts 91°
2026-05-03 23:08 32.76340 -114.67542 32771 ft 526 kts 102°
2026-05-03 23:09 32.75558 -114.58852 32770 ft 530 kts 99°
2026-05-03 23:09 32.74905 -114.50141 32763 ft 530 kts 98°
2026-05-03 23:10 32.74259 -114.41427 32777 ft 530 kts 98°
2026-05-03 23:10 32.73606 -114.32710 32789 ft 530 kts 98°
2026-05-03 23:11 32.72949 -114.24000 32774 ft 529 kts 98°
2026-05-03 23:11 32.72287 -114.15302 32777 ft 529 kts 98°
2026-05-03 23:12 32.71616 -114.06594 32776 ft 529 kts 98°
2026-05-03 23:12 32.70942 -113.97905 32778 ft 529 kts 98°
2026-05-03 23:13 32.70260 -113.89195 32784 ft 528 kts 98°
2026-05-03 23:13 32.69575 -113.80527 32788 ft 528 kts 98°
2026-05-03 23:14 32.68884 -113.71848 32805 ft 527 kts 98°
2026-05-03 23:14 32.68186 -113.63178 32791 ft 527 kts 98°
2026-05-03 23:15 32.67484 -113.54519 32805 ft 527 kts 98°
2026-05-03 23:15 32.66781 -113.45930 32805 ft 526 kts 98°
2026-05-03 23:16 32.66068 -113.37290 32822 ft 526 kts 98°
2026-05-03 23:16 32.65350 -113.28649 32811 ft 525 kts 98°
2026-05-03 23:16 32.64989 -113.24340 32644 ft 525 kts 98°
2026-05-03 23:17 32.64629 -113.20053 32332 ft 519 kts 99°
2026-05-03 23:17 32.64269 -113.15804 31597 ft 522 kts 98°
2026-05-03 23:17 32.63905 -113.11495 30695 ft 526 kts 98°
2026-05-03 23:17 32.63541 -113.07213 30179 ft 516 kts 98°
2026-05-03 23:18 32.63184 -113.03028 29869 ft 505 kts 98°
2026-05-03 23:18 32.62830 -112.98914 29426 ft 497 kts 98°
2026-05-03 23:18 32.62480 -112.94855 28926 ft 492 kts 98°
2026-05-03 23:18 32.62134 -112.90846 28457 ft 485 kts 98°
2026-05-03 23:19 32.61791 -112.86896 27999 ft 478 kts 98°
2026-05-03 23:19 32.61453 -112.83014 27552 ft 471 kts 98°
2026-05-03 23:19 32.61116 -112.79162 27095 ft 465 kts 98°
2026-05-03 23:19 32.60783 -112.75371 26648 ft 460 kts 98°
2026-05-03 23:20 32.60454 -112.71625 26175 ft 454 kts 98°
2026-05-03 23:20 32.60125 -112.67900 25376 ft 454 kts 98°
2026-05-03 23:20 32.59798 -112.64210 24843 ft 444 kts 99°
2026-05-03 23:20 32.59478 -112.60617 24493 ft 432 kts 99°
2026-05-03 23:21 32.59165 -112.57111 24118 ft 422 kts 99°
2026-05-03 23:21 32.58859 -112.53690 23747 ft 413 kts 99°
2026-05-03 23:21 32.58557 -112.50317 23355 ft 410 kts 99°
2026-05-03 23:21 32.58255 -112.46973 22981 ft 407 kts 99°
2026-05-03 23:22 32.57654 -112.40321 22216 ft 403 kts 99°
2026-05-03 23:22 32.57355 -112.37028 21841 ft 401 kts 98°
2026-05-03 23:22 32.57056 -112.33745 21455 ft 399 kts 98°
2026-05-03 23:23 32.56759 -112.30490 21074 ft 395 kts 98°
2026-05-03 23:23 32.56464 -112.27275 20715 ft 390 kts 98°
2026-05-03 23:23 32.56173 -112.24107 20318 ft 383 kts 98°
2026-05-03 23:23 32.55886 -112.20994 19961 ft 376 kts 98°
2026-05-03 23:24 32.55604 -112.17935 19595 ft 372 kts 98°
2026-05-03 23:24 32.55323 -112.14907 19225 ft 367 kts 98°
2026-05-03 23:24 32.55045 -112.11920 18859 ft 363 kts 98°
2026-05-03 23:24 32.54770 -112.08971 18505 ft 358 kts 97°
2026-05-03 23:25 32.54498 -112.06050 18151 ft 354 kts 97°
2026-05-03 23:25 32.54228 -112.03171 17799 ft 349 kts 97°
2026-05-03 23:25 32.53963 -112.00335 17475 ft 343 kts 97°
2026-05-03 23:25 32.53700 -111.97534 17152 ft 341 kts 97°
2026-05-03 23:26 32.53436 -111.94751 16821 ft 339 kts 98°
2026-05-03 23:26 32.53178 -111.92014 16473 ft 338 kts 97°
2026-05-03 23:26 32.52916 -111.89257 16134 ft 335 kts 98°
2026-05-03 23:26 32.52740 -111.87403 15892 ft 335 kts 97°
2026-05-03 23:27 32.52703 -111.87004 15849 ft 335 kts 98°
2026-05-03 23:27 32.52442 -111.84263 15511 ft 332 kts 98°
2026-05-03 23:27 32.52184 -111.81557 15170 ft 330 kts 98°
2026-05-03 23:27 32.51926 -111.78863 14837 ft 328 kts 98°
2026-05-03 23:28 32.51668 -111.76180 14498 ft 327 kts 98°
2026-05-03 23:28 32.51413 -111.73519 14163 ft 325 kts 98°
2026-05-03 23:28 32.51159 -111.70867 13826 ft 323 kts 98°
2026-05-03 23:28 32.50904 -111.68226 13483 ft 322 kts 98°
2026-05-03 23:29 32.50650 -111.65601 13151 ft 320 kts 99°
2026-05-03 23:29 32.50422 -111.63245 12853 ft 318 kts 99°
2026-05-03 23:29 32.50171 -111.60661 12531 ft 316 kts 99°
2026-05-03 23:29 32.49920 -111.58084 12200 ft 314 kts 99°
2026-05-03 23:30 32.49643 -111.55531 11872 ft 309 kts 105°
2026-05-03 23:30 32.48783 -111.53266 11431 ft 299 kts 130°
2026-05-03 23:30 32.47548 -111.51317 11081 ft 294 kts 129°
2026-05-03 23:30 32.46351 -111.49383 10726 ft 289 kts 129°
2026-05-03 23:31 32.45168 -111.47489 10362 ft 285 kts 129°
2026-05-03 23:31 32.43986 -111.45609 10006 ft 285 kts 129°
2026-05-03 23:31 32.43199 -111.44361 9748 ft 285 kts 129°
2026-05-03 23:31 32.41613 -111.41851 9247 ft 285 kts 129°
2026-05-03 23:32 32.40825 -111.40607 9014 ft 285 kts 129°
2026-05-03 23:32 32.39639 -111.38733 8645 ft 285 kts 129°
2026-05-03 23:32 32.38452 -111.36860 8285 ft 284 kts 129°
2026-05-03 23:32 32.37307 -111.34984 7970 ft 276 kts 122°
2026-05-03 23:33 32.36762 -111.32853 7947 ft 270 kts 94°
2026-05-03 23:33 32.36834 -111.30709 8456 ft 258 kts 90°
2026-05-03 23:33 32.36913 -111.28614 8318 ft 249 kts 93°
2026-05-03 23:33 32.36586 -111.26669 7930 ft 238 kts 121°
2026-05-03 23:34 32.35692 -111.25048 7477 ft 235 kts 130°
2026-05-03 23:34 32.34712 -111.23512 7100 ft 231 kts 130°
2026-05-03 23:34 32.33735 -111.22006 6975 ft 228 kts 130°
2026-05-03 23:34 32.32802 -111.20557 6952 ft 215 kts 131°
2026-05-03 23:35 32.31907 -111.19170 6932 ft 211 kts 130°
2026-05-03 23:35 32.31052 -111.17803 6993 ft 199 kts 129°
2026-05-03 23:35 32.30246 -111.16464 6780 ft 203 kts 129°
2026-05-03 23:35 32.29411 -111.15110 6536 ft 206 kts 130°
2026-05-03 23:36 32.28523 -111.13781 6291 ft 207 kts 132°
2026-05-03 23:36 32.27591 -111.12472 6080 ft 209 kts 133°
2026-05-03 23:36 32.26629 -111.11191 5898 ft 206 kts 135°
2026-05-03 23:36 32.25668 -111.09955 5668 ft 202 kts 136°
2026-05-03 23:37 32.24700 -111.08756 5342 ft 202 kts 137°
2026-05-03 23:37 32.23712 -111.07599 5084 ft 200 kts 140°
2026-05-03 23:37 32.22697 -111.06478 4841 ft 198 kts 141°
2026-05-03 23:37 32.21691 -111.05394 4629 ft 196 kts 141°
2026-05-03 23:38 32.20733 -111.04304 4574 ft 185 kts 140°
2026-05-03 23:38 32.19835 -111.03240 4293 ft 179 kts 140°
2026-05-03 23:38 32.18991 -111.02250 4035 ft 172 kts 141°
2026-05-03 23:38 32.18120 -111.01261 3817 ft 176 kts 142°
2026-05-03 23:39 32.17252 -111.00293 3691 ft 165 kts 143°
2026-05-03 23:39 32.16424 -110.99410 3518 ft 158 kts 144°
2026-05-03 23:39 32.15601 -110.98555 3283 ft 157 kts 143°
2026-05-03 23:39 32.14811 -110.97660 3108 ft 159 kts 140°
2026-05-03 23:40 32.14020 -110.96721 2951 ft 164 kts 142°
2026-05-03 23:40 32.13207 -110.95784 2808 ft 164 kts 142°
2026-05-03 23:40 32.12389 -110.94843 2633 ft 163 kts 141°
2026-05-03 23:40 32.11644 -110.93979 2566 ft 121 kts 134°
2026-05-03 23:41 32.11216 -110.93475 2571 ft 65 kts 134°
2026-05-03 23:41 32.10941 -110.93156 2568 ft 55 kts 135°
2026-05-03 23:41 32.10696 -110.92859 2570 ft 35 kts 119°
2026-05-03 23:41 32.10724 -110.92746 2571 ft 14 kts 45°
2026-05-03 23:42 32.10806 -110.92738 2573 ft 12 kts 311°
2026-05-03 23:42 32.10875 -110.92828 2570 ft 19 kts 317°
2026-05-03 23:42 32.10991 -110.92968 2567 ft 28 kts 315°
2026-05-03 23:42 32.11138 -110.93140 2570 ft 31 kts 315°
2026-05-03 23:43 32.11287 -110.93316 2571 ft 30 kts 315°
2026-05-03 23:43 32.11438 -110.93490 2572 ft 30 kts 316°
2026-05-03 23:43 32.11592 -110.93675 2571 ft 33 kts 314°
2026-05-03 23:43 32.11716 -110.93804 2567 ft 15 kts 344°
2026-05-03 23:44 32.11799 -110.93794 2577 ft 8 kts 344°
2026-05-03 23:44 32.11838 -110.93814 2580 ft 4 kts 347°
2026-05-03 23:44 32.11845 -110.93814 2581 ft 0 kts
2026-05-03 23:44 32.11860 -110.93808 2583 ft 4 kts 31°
2026-05-03 23:45 32.11867 -110.93800 2584 ft 0 kts 49°
2026-05-03 23:45 32.11874 -110.93789 2585 ft 3 kts 57°
2026-05-03 23:45 32.11883 -110.93771 2586 ft 2 kts 60°
2026-05-03 23:45 32.11886 -110.93763 2586 ft 0 kts 60°
2026-05-03 23:46 32.11881 -110.93774 2586 ft 0 kts 60°
2026-05-03 23:46 32.11883 -110.93771 2586 ft 0 kts 60°